| time (UTC) | temp F | wind direction | speed MPH | gust MPH | rain 1hr in | rain 24hr in | rain mn in | humidity % | barometer mb |
| 20260504100532 | 44 | 100 | 0.0 | 2.0 | 0.00 | 0.00 | 0.00 | 85 | 1007.3 |
| 20260504081541 | 45 | 0 | 0.0 | 1.0 | 0.00 | 0.00 | 0.00 | 76 | 1008.0 |
| 20260504081034 | 45 | 0 | 0.0 | 1.0 | 0.00 | 0.00 | 0.00 | 76 | 1008.0 |
| 20260504080530 | 45 | 0 | 0.0 | 1.0 | 0.00 | 0.00 | 0.00 | 75 | 1007.8 |
| 20260504050532 | 42 | 0 | 0.0 | 0.0 | 0.00 | 0.00 | 0.00 | 61 | 1008.3 |
| 20260504045533 | 42 | 0 | 0.0 | 0.0 | 0.00 | 0.00 | 0.00 | 61 | 1008.4 |
| 20260504045032 | 42 | 0 | 0.0 | 0.0 | 0.00 | 0.00 | 0.00 | 60 | 1008.5 |
| 20260504044542 | 42 | 0 | 0.0 | 0.0 | 0.00 | 0.00 | 0.00 | 60 | 1008.5 |
| 20260504044033 | 42 | 0 | 0.0 | 0.0 | 0.00 | 0.00 | 0.00 | 61 | 1008.5 |
| 20260504043536 | 42 | 0 | 0.0 | 0.0 | 0.00 | 0.00 | 0.00 | 60 | 1008.5 |
| 20260504043043 | 42 | 0 | 0.0 | 0.0 | 0.00 | 0.00 | 0.00 | 61 | 1008.6 |
| 20260504042533 | 41 | 0 | 0.0 | 0.0 | 0.00 | 0.00 | 0.00 | 63 | 1008.6 |
| 20260504042033 | 41 | 0 | 0.0 | 0.0 | 0.00 | 0.00 | 0.00 | 62 | 1008.7 |
| 20260504041545 | 41 | 0 | 0.0 | 0.0 | 0.00 | 0.00 | 0.00 | 62 | 1008.7 |
| 20260504041032 | 41 | 0 | 0.0 | 0.0 | 0.00 | 0.00 | 0.00 | 62 | 1008.7 |
| 20260504040535 | 41 | 0 | 0.0 | 0.0 | 0.00 | 0.00 | 0.00 | 63 | 1008.7 |
| 20260504040045 | 41 | 0 | 0.0 | 0.0 | 0.00 | 0.00 | 0.00 | 63 | 1008.7 |
| 20260504035533 | 41 | 0 | 0.0 | 0.0 | 0.00 | 0.00 | 0.00 | 64 | 1008.7 |
| 20260504035032 | 41 | 0 | 0.0 | 1.0 | 0.00 | 0.00 | 0.00 | 64 | 1008.7 |
| 20260504034554 | 41 | 0 | 0.0 | 1.0 | 0.00 | 0.00 | 0.00 | 66 | 1008.7 |
| 20260504034035 | 40 | 0 | 0.0 | 0.0 | 0.00 | 0.00 | 0.00 | 66 | 1008.7 |
| 20260504033532 | 40 | 0 | 0.0 | 0.0 | 0.00 | 0.00 | 0.00 | 67 | 1008.7 |
| 20260504033055 | 40 | 0 | 0.0 | 0.0 | 0.00 | 0.00 | 0.00 | 64 | 1008.7 |
| 20260504032535 | 40 | 0 | 0.0 | 0.0 | 0.00 | 0.00 | 0.00 | 64 | 1008.7 |
| 20260504032034 | 40 | 0 | 0.0 | 0.0 | 0.00 | 0.00 | 0.00 | 61 | 1008.6 |
| 20260504031559 | 41 | 0 | 0.0 | 0.0 | 0.00 | 0.00 | 0.00 | 61 | 1008.6 |
| 20260504031032 | 40 | 0 | 0.0 | 1.0 | 0.00 | 0.00 | 0.00 | 61 | 1008.7 |
| 20260504030532 | 41 | 0 | 0.0 | 1.0 | 0.00 | 0.00 | 0.00 | 61 | 1008.7 |
| 20260504030101 | 41 | 0 | 0.0 | 1.0 | 0.00 | 0.00 | 0.00 | 60 | 1008.7 |
| 20260504025532 | 41 | 0 | 0.0 | 1.0 | 0.00 | 0.00 | 0.00 | 60 | 1008.7 |
| 20260504025034 | 41 | 0 | 0.0 | 1.0 | 0.00 | 0.00 | 0.00 | 61 | 1008.8 |
| 20260504024549 | 41 | 0 | 0.0 | 1.0 | 0.00 | 0.00 | 0.00 | 63 | 1008.8 |
| 20260504024032 | 41 | 0 | 0.0 | 1.0 | 0.00 | 0.00 | 0.00 | 63 | 1008.9 |
| 20260504023532 | 41 | 0 | 0.0 | 0.0 | 0.00 | 0.00 | 0.00 | 62 | 1009.0 |
| 20260504023041 | 41 | 0 | 0.0 | 0.0 | 0.00 | 0.00 | 0.00 | 63 | 1009.0 |
| 20260504022535 | 41 | 0 | 0.0 | 0.0 | 0.00 | 0.00 | 0.00 | 62 | 1009.1 |
| 20260504022032 | 41 | 0 | 0.0 | 0.0 | 0.00 | 0.00 | 0.00 | 62 | 1009.1 |
| 20260504021544 | 41 | 0 | 0.0 | 0.0 | 0.00 | 0.00 | 0.00 | 62 | 1009.1 |
| 20260504021031 | 41 | 0 | 0.0 | 0.0 | 0.00 | 0.00 | 0.00 | 62 | 1009.1 |
| 20260504020531 | 41 | 0 | 0.0 | 0.0 | 0.00 | 0.00 | 0.00 | 63 | 1009.1 |
| 20260504020046 | 41 | 0 | 0.0 | 0.0 | 0.00 | 0.00 | 0.00 | 64 | 1009.1 |
| 20260504015532 | 41 | 0 | 0.0 | 0.0 | 0.00 | 0.00 | 0.00 | 63 | 1009.1 |
| 20260504015035 | 41 | 0 | 0.0 | 0.0 | 0.00 | 0.00 | 0.00 | 63 | 1009.2 |
| 20260504014545 | 42 | 0 | 0.0 | 0.0 | 0.00 | 0.00 | 0.00 | 63 | 1009.2 |
| 20260504014032 | 42 | 0 | 0.0 | 0.0 | 0.00 | 0.00 | 0.00 | 63 | 1009.2 |
| 20260504013532 | 42 | 0 | 0.0 | 0.0 | 0.00 | 0.00 | 0.00 | 62 | 1009.2 |
| 20260504013043 | 42 | 0 | 0.0 | 0.0 | 0.00 | 0.00 | 0.00 | 63 | 1009.2 |
| 20260504012533 | 42 | 0 | 0.0 | 0.0 | 0.00 | 0.00 | 0.00 | 61 | 1009.1 |
| 20260504012032 | 43 | 0 | 0.0 | 0.0 | 0.00 | 0.00 | 0.00 | 61 | 1009.2 |
| 20260504011537 | 43 | 0 | 0.0 | 0.0 | 0.00 | 0.00 | 0.00 | 60 | 1009.1 |
| 20260504011034 | 43 | 0 | 0.0 | 0.0 | 0.00 | 0.00 | 0.00 | 59 | 1008.9 |
| 20260504010533 | 43 | 0 | 0.0 | 0.0 | 0.00 | 0.00 | 0.00 | 61 | 1008.9 |
| 20260504010044 | 43 | 0 | 0.0 | 0.0 | 0.00 | 0.00 | 0.00 | 59 | 1008.8 |
| 20260504005532 | 43 | 0 | 0.0 | 0.0 | 0.00 | 0.01 | 0.00 | 59 | 1008.8 |
| 20260504005036 | 43 | 0 | 0.0 | 0.0 | 0.00 | 0.01 | 0.00 | 59 | 1008.7 |
| 20260504004543 | 43 | 0 | 0.0 | 1.0 | 0.00 | 0.01 | 0.00 | 58 | 1008.7 |
| 20260504004033 | 44 | 0 | 0.0 | 1.0 | 0.00 | 0.01 | 0.00 | 58 | 1008.7 |
| 20260504003532 | 44 | 0 | 0.0 | 0.0 | 0.00 | 0.01 | 0.00 | 56 | 1008.6 |
| 20260504003044 | 44 | 0 | 0.0 | 0.0 | 0.00 | 0.01 | 0.00 | 57 | 1008.6 |
| 20260504002532 | 45 | 0 | 0.0 | 0.0 | 0.00 | 0.01 | 0.00 | 57 | 1008.7 |
| 20260504002032 | 45 | 0 | 0.0 | 0.0 | 0.00 | 0.01 | 0.00 | 55 | 1008.6 |
| 20260504001543 | 45 | 0 | 0.0 | 0.0 | 0.00 | 0.01 | 0.00 | 54 | 1008.7 |
| 20260504001032 | 46 | 0 | 0.0 | 0.0 | 0.00 | 0.01 | 0.00 | 54 | 1008.6 |
| 20260504000532 | 46 | 0 | 0.0 | 0.0 | 0.00 | 0.01 | 0.00 | 52 | 1008.6 |
| 20260503235532 | 47 | 0 | 0.0 | 0.0 | 0.00 | 0.02 | 0.00 | 52 | 1008.4 |
| 20260503235035 | 47 | 0 | 0.0 | 0.0 | 0.00 | 0.02 | 0.00 | 50 | 1008.4 |
| 20260503234543 | 48 | 0 | 0.0 | 0.0 | 0.00 | 0.02 | 0.00 | 50 | 1008.5 |
| 20260503234032 | 48 | 0 | 0.0 | 0.0 | 0.00 | 0.02 | 0.00 | 50 | 1008.4 |
| 20260503233534 | 49 | 0 | 0.0 | 0.0 | 0.00 | 0.02 | 0.00 | 49 | 1008.4 |
| 20260503233044 | 49 | 0 | 0.0 | 0.0 | 0.00 | 0.02 | 0.00 | 48 | 1008.3 |
| 20260503232533 | 49 | 0 | 0.0 | 0.0 | 0.00 | 0.02 | 0.00 | 48 | 1008.3 |
| 20260503232032 | 49 | 0 | 0.0 | 0.0 | 0.00 | 0.02 | 0.00 | 49 | 1008.2 |
| 20260503231546 | 49 | 0 | 0.0 | 0.0 | 0.00 | 0.02 | 0.00 | 48 | 1008.2 |
| 20260503231032 | 50 | 0 | 0.0 | 0.0 | 0.00 | 0.02 | 0.00 | 46 | 1008.2 |
| 20260503230535 | 50 | 0 | 0.0 | 0.0 | 0.00 | 0.02 | 0.00 | 48 | 1008.2 |
| 20260503230042 | 50 | 0 | 0.0 | 0.0 | 0.00 | 0.02 | 0.00 | 48 | 1008.2 |
| 20260503225532 | 49 | 0 | 0.0 | 0.0 | 0.00 | 0.03 | 0.00 | 48 | 1008.3 |
| 20260503225032 | 49 | 0 | 0.0 | 0.0 | 0.00 | 0.03 | 0.00 | 48 | 1008.3 |
| 20260503224545 | 49 | 0 | 0.0 | 0.0 | 0.00 | 0.03 | 0.00 | 47 | 1008.3 |
| 20260503224034 | 49 | 0 | 0.0 | 0.0 | 0.00 | 0.03 | 0.00 | 46 | 1008.3 |
| 20260503223535 | 49 | 0 | 0.0 | 0.0 | 0.00 | 0.03 | 0.00 | 46 | 1008.3 |
| 20260503223040 | 49 | 0 | 0.0 | 0.0 | 0.00 | 0.03 | 0.00 | 47 | 1008.4 |
| 20260503222533 | 50 | 0 | 0.0 | 0.0 | 0.00 | 0.03 | 0.00 | 46 | 1008.4 |
| 20260503222032 | 49 | 0 | 0.0 | 0.0 | 0.00 | 0.03 | 0.00 | 46 | 1008.4 |
| 20260503221543 | 49 | 0 | 0.0 | 0.0 | 0.00 | 0.03 | 0.00 | 44 | 1008.5 |
| 20260503221033 | 49 | 299 | 0.0 | 1.0 | 0.00 | 0.03 | 0.00 | 45 | 1008.3 |
| 20260503220533 | 49 | 0 | 0.0 | 1.0 | 0.00 | 0.03 | 0.00 | 45 | 1008.3 |
| 20260503220046 | 50 | 0 | 0.0 | 1.0 | 0.00 | 0.03 | 0.00 | 47 | 1008.2 |
| 20260503215535 | 49 | 0 | 0.0 | 1.0 | 0.00 | 0.05 | 0.00 | 44 | 1008.2 |
| 20260503215035 | 50 | 296 | 0.0 | 1.0 | 0.00 | 0.05 | 0.00 | 47 | 1008.2 |
| 20260503214543 | 50 | 0 | 0.0 | 1.0 | 0.00 | 0.05 | 0.00 | 46 | 1008.1 |
| 20260503214032 | 50 | 0 | 0.0 | 0.0 | 0.00 | 0.05 | 0.00 | 49 | 1008.2 |
| 20260503213532 | 50 | 0 | 0.0 | 0.0 | 0.00 | 0.05 | 0.00 | 46 | 1008.2 |
| 20260503213043 | 49 | 0 | 0.0 | 0.0 | 0.00 | 0.05 | 0.00 | 45 | 1008.1 |
| 20260503212536 | 49 | 0 | 0.0 | 0.0 | 0.00 | 0.05 | 0.00 | 48 | 1008.1 |
| 20260503212031 | 49 | 0 | 0.0 | 0.0 | 0.00 | 0.05 | 0.00 | 48 | 1008.1 |
| 20260503211543 | 49 | 0 | 0.0 | 1.0 | 0.00 | 0.05 | 0.00 | 47 | 1008.1 |
| 20260503211034 | 49 | 0 | 0.0 | 1.0 | 0.00 | 0.05 | 0.00 | 46 | 1008.1 |
| 20260503210532 | 49 | 333 | 0.0 | 1.0 | 0.00 | 0.05 | 0.00 | 46 | 1008.1 |
| 20260503210043 | 49 | 330 | 0.0 | 2.0 | 0.00 | 0.05 | 0.00 | 49 | 1008.0 |
| 20260503205534 | 50 | 329 | 0.0 | 2.0 | 0.00 | 0.05 | 0.00 | 48 | 1008.0 |
| 20260503205036 | 50 | 345 | 0.0 | 2.0 | 0.00 | 0.05 | 0.00 | 48 | 1008.0 |
| 20260503204541 | 50 | 335 | 0.0 | 1.0 | 0.00 | 0.05 | 0.00 | 47 | 1008.0 |
| 20260503204032 | 49 | 338 | 0.0 | 1.0 | 0.00 | 0.05 | 0.00 | 50 | 1008.0 |
| 20260503203534 | 49 | 84 | 0.0 | 2.0 | 0.00 | 0.05 | 0.00 | 47 | 1008.1 |
| 20260503203045 | 49 | 345 | 0.0 | 2.0 | 0.00 | 0.05 | 0.00 | 51 | 1008.0 |
| 20260503202549 | 49 | 331 | 0.0 | 2.0 | 0.00 | 0.05 | 0.00 | 47 | 1008.1 |
| 20260503202034 | 49 | 340 | 1.0 | 2.0 | 0.00 | 0.05 | 0.00 | 48 | 1008.1 |
| 20260503201541 | 49 | 343 | 0.0 | 1.0 | 0.00 | 0.05 | 0.00 | 48 | 1008.1 |
| 20260503201034 | 50 | 3 | 0.0 | 3.0 | 0.00 | 0.05 | 0.00 | 47 | 1008.2 |
| 20260503200532 | 50 | 321 | 1.0 | 3.0 | 0.00 | 0.05 | 0.00 | 49 | 1008.2 |
| 20260503200040 | 50 | 5 | 1.0 | 3.0 | 0.00 | 0.05 | 0.00 | 49 | 1008.2 |
| 20260503195533 | 50 | 329 | 1.0 | 3.0 | 0.00 | 0.05 | 0.00 | 50 | 1008.4 |
| 20260503195033 | 49 | 322 | 0.0 | 3.0 | 0.00 | 0.05 | 0.00 | 53 | 1008.4 |
| 20260503194547 | 49 | 338 | 1.0 | 3.0 | 0.00 | 0.05 | 0.00 | 50 | 1008.5 |
| 20260503194033 | 49 | 325 | 1.0 | 3.0 | 0.00 | 0.05 | 0.00 | 49 | 1008.5 |
| 20260503193535 | 49 | 327 | 0.0 | 2.0 | 0.00 | 0.05 | 0.00 | 51 | 1008.6 |
| 20260503193045 | 49 | 317 | 0.0 | 3.0 | 0.00 | 0.05 | 0.00 | 52 | 1008.7 |
| 20260503192533 | 49 | 316 | 1.0 | 3.0 | 0.00 | 0.05 | 0.00 | 49 | 1008.7 |
| 20260503192032 | 49 | 319 | 0.0 | 2.0 | 0.00 | 0.05 | 0.00 | 49 | 1008.9 |
| 20260503191543 | 49 | 316 | 1.0 | 2.0 | 0.00 | 0.05 | 0.00 | 50 | 1008.9 |
| 20260503191033 | 49 | 323 | 0.0 | 2.0 | 0.00 | 0.05 | 0.00 | 50 | 1008.9 |
| 20260503190533 | 49 | 335 | 0.0 | 3.0 | 0.00 | 0.05 | 0.00 | 50 | 1009.0 |
| 20260503190043 | 49 | 352 | 1.0 | 3.0 | 0.00 | 0.05 | 0.00 | 53 | 1009.0 |
| 20260503185532 | 48 | 316 | 1.0 | 3.0 | 0.00 | 0.05 | 0.00 | 51 | 1009.1 |
| 20260503185032 | 48 | 255 | 0.0 | 3.0 | 0.00 | 0.05 | 0.00 | 52 | 1009.1 |
| 20260503184605 | 48 | 131 | 1.0 | 3.0 | 0.00 | 0.05 | 0.00 | 51 | 1009.2 |
| 20260503184032 | 48 | 283 | 0.0 | 3.0 | 0.00 | 0.05 | 0.00 | 53 | 1009.2 |
| 20260503183532 | 48 | 320 | 0.0 | 3.0 | 0.00 | 0.05 | 0.00 | 53 | 1009.2 |
| 20260503183049 | 48 | 320 | 1.0 | 3.0 | 0.00 | 0.05 | 0.00 | 50 | 1009.2 |
| 20260503182533 | 48 | 314 | 1.0 | 3.0 | 0.00 | 0.05 | 0.00 | 52 | 1009.2 |
| 20260503182032 | 48 | 0 | 1.0 | 2.0 | 0.00 | 0.05 | 0.00 | 51 | 1009.2 |
| 20260503181548 | 48 | 249 | 1.0 | 3.0 | 0.00 | 0.05 | 0.00 | 55 | 1009.2 |
| 20260503181034 | 48 | 315 | 0.0 | 3.0 | 0.00 | 0.05 | 0.00 | 53 | 1009.2 |
| 20260503180535 | 48 | 1 | 1.0 | 5.0 | 0.00 | 0.05 | 0.00 | 50 | 1009.2 |
| 20260503180044 | 48 | 249 | 1.0 | 5.0 | 0.00 | 0.05 | 0.00 | 51 | 1009.2 |
| 20260503175532 | 49 | 11 | 0.0 | 3.0 | 0.00 | 0.05 | 0.00 | 50 | 1009.2 |
| 20260503175035 | 49 | 0 | 1.0 | 4.0 | 0.00 | 0.05 | 0.00 | 51 | 1009.3 |
| 20260503174543 | 49 | 326 | 1.0 | 4.0 | 0.00 | 0.05 | 0.00 | 52 | 1009.3 |
| 20260503174034 | 49 | 347 | 1.0 | 2.0 | 0.00 | 0.05 | 0.00 | 52 | 1009.3 |
| 20260503173534 | 49 | 323 | 1.0 | 3.0 | 0.00 | 0.05 | 0.00 | 52 | 1009.3 |
| 20260503173045 | 48 | 341 | 0.0 | 3.0 | 0.00 | 0.05 | 0.00 | 54 | 1009.4 |
| 20260503172532 | 48 | 288 | 1.0 | 3.0 | 0.00 | 0.05 | 0.00 | 54 | 1009.3 |
| 20260503172035 | 48 | 32 | 0.0 | 3.0 | 0.00 | 0.05 | 0.00 | 52 | 1009.5 |
| 20260503171604 | 48 | 324 | 1.0 | 4.0 | 0.00 | 0.05 | 0.00 | 52 | 1009.4 |
| 20260503171032 | 47 | 305 | 1.0 | 4.0 | 0.00 | 0.05 | 0.00 | 53 | 1009.5 |
| 20260503170534 | 47 | 346 | 0.0 | 6.0 | 0.00 | 0.05 | 0.00 | 53 | 1009.5 |
| 20260503150532 | 48 | 328 | 3.0 | 5.0 | 0.00 | 0.05 | 0.00 | 50 | 1010.2 |
| 20260503131035 | 45 | 341 | 2.0 | 4.0 | 0.00 | 0.05 | 0.00 | 69 | 1011.0 |
| 20260503130532 | 45 | 347 | 2.0 | 4.0 | 0.00 | 0.05 | 0.00 | 70 | 1011.0 |
| 20260503110532 | 39 | 0 | 0.0 | 0.0 | 0.00 | 0.07 | 0.00 | 87 | 1010.8 |